Temp
-11 -11 -11 -11 -10 -10 -10 -11 -11 -11 -10 -9 -10 -10 -10 -11 -11 -11 -11 -11 -11 -11 -11 -11 -11 -11 -11 -11 -11 -11 -11 -10 -10 -11 -11 -10 -10 -10 -11 -11 -11 -11 -11
-11 -11 -11 -11 -10 -11 -11 -11 -11 -11 -11 -10 -10 -10 -11 -11 -12 -12 -11 -12 -12 -12 -11 -11 -12 -12 -12 -12 -11 -11 -11 -11 -11 -11 -11 -11 -11 -11 -11 -11 -11 -11 -11
-11 -11 -11 -11 -11 -11 -11 -11 -11 -11 -11 -10 -10 -10 -11 -11 -11 -12 -12 -12 -12 -12 -12 -12 -12 -12 -12 -12 -12 -12 -12 -12 -12 -12 -12 -12 -12 -12 -12 -12 -12 -12 -12
-11 -11 -11 -11 -11 -11 -11 -11 -11 -11 -11 -10 -10 -10 -11 -11 -12 -12 -12 -13 -13 -13 -13 -12 -12 -12 -12 -12 -12 -12 -12 -12 -12 -12 -12 -12 -12 -12 -12 -12 -12 -12 -12
-11 -11 -11 -11 -12 -12 -12 -11 -11 -11 -11 -11 -11 -11 -11 -11 -11 -12 -13 -13 -13 -13 -13 -12 -13 -13 -12 -12 -12 -12 -12 -12 -13 -13 -12 -12 -12 -12 -12 -12 -12 -12 -12
-11 -11 -12 -12 -11 -11 -11 -12 -11 -11 -11 -11 -11 -12 -12 -12 -12 -13 -14 -14 -14 -14 -13 -13 -13 -12 -12 -12 -12 -13 -13 -13 -13 -13 -13 -13 -13 -13 -13 -13 -13 -13 -13
-12 -11 -11 -11 -11 -12 -11 -11 -11 -11 -12 -12 -11 -11 -12 -12 -12 -14 -15 -15 -14 -13 -13 -13 -13 -12 -13 -13 -13 -13 -13 -13 -13 -13 -13 -13 -13 -13 -12 -12 -13 -12 -12
-12 -12 -11 -11 -11 -11 -12 -12 -12 -12 -11 -11 -11 -12 -12 -12 -15 -16 -15 -14 -14 -14 -13 -13 -13 -13 -13 -12 -12 -13 -13 -14 -14 -14 -13 -13 -13 -13 -13 -13 -13 -13 -13
-12 -12 -12 -10 -11 -11 -11 -12 -12 -12 -11 -11 -11 -11 -12 -14 -16 -16 -15 -14 -14 -14 -13 -13 -13 -13 -12 -12 -12 -13 -13 -14 -14 -14 -14 -13 -13 -13 -13 -14 -14 -13 -14
-12 -12 -11 -11 -11 -11 -11 -11 -11 -11 -11 -12 -12 -13 -15 -17 -16 -15 -15 -14 -14 -14 -13 -13 -13 -13 -13 -13 -13 -13 -14 -14 -14 -14 -14 -13 -13 -14 -14 -14 -14 -14 -14
-12 -11 -10 -11 -11 -11 -11 -11 -11 -11 -13 -13 -13 -15 -16 -15 -15 -15 -14 -14 -13 -13 -14 -14 -13 -13 -13 -13 -13 -13 -13 -13 -13 -13 -13 -13 -13 -13 -14 -14 -14 -14 -14
-11 -12 -11 -11 -11 -11 -11 -12 -12 -13 -13 -14 -16 -16 -16 -16 -15 -15 -14 -14 -14 -14 -14 -14 -14 -13 -13 -13 -13 -14 -14 -13 -13 -14 -14 -14 -14 -14 -15 -15 -15 -15 -15
-12 -12 -12 -12 -12 -11 -12 -12 -13 -13 -15 -15 -16 -16 -16 -15 -14 -14 -14 -15 -15 -15 -14 -14 -14 -14 -14 -14 -14 -14 -14 -14 -14 -14 -15 -15 -15 -14 -15 -15 -16 -16 -16
-12 -11 -12 -12 -12 -12 -12 -13 -14 -16 -17 -16 -15 -15 -15 -16 -15 -15 -15 -15 -14 -14 -14 -14 -14 -14 -14 -14 -14 -14 -14 -15 -15 -15 -15 -14 -15 -15 -15 -15 -16 -16 -16
-13 -13 -12 -12 -12 -13 -15 -15 -16 -16 -16 -15 -15 -15 -15 -15 -15 -15 -14 -14 -14 -14 -14 -14 -14 -14 -14 -15 -15 -15 -15 -15 -15 -15 -15 -15 -16 -16 -16 -16 -16 -16 -16
-15 -14 -14 -15 -15 -16 -16 -15 -15 -15 -15 -15 -15 -15 -15 -15 -15 -14 -14 -14 -14 -14 -15 -14 -14 -14 -15 -15 -15 -15 -15 -16 -16 -16 -16 -16 -17 -17 -16 -16 -16 -17 -17
-15 -15 -16 -16 -16 -15 -15 -15 -15 -15 -15 -15 -14 -14 -15 -15 -14 -14 -14 -14 -14 -15 -14 -15 -15 -15 -15 -15 -15 -15 -15 -16 -16 -17 -17 -17 -18 -18 -17 -17 -17 -17 -17
-16 -16 -15 -15 -15 -15 -15 -15 -15 -14 -14 -14 -15 -15 -15 -15 -15 -15 -15 -15 -15 -15 -15 -15 -15 -15 -15 -15 -16 -16 -16 -16 -17 -17 -17 -18 -18 -18 -18 -18 -18 -18 -18
-15 -16 -15 -15 -15 -14 -14 -14 -14 -14 -14 -14 -15 -15 -15 -15 -15 -15 -15 -15 -15 -15 -15 -15 -15 -16 -16 -16 -17 -17 -17 -17 -18 -18 -18 -18 -19 -18 -18 -18 -19 -19 -19
-15 -15 -15 -15 -15 -15 -14 -14 -14 -15 -15 -15 -14 -15 -15 -15 -15 -15 -15 -15 -15 -15 -15 -16 -16 -16 -17 -17 -17 -17 -17 -18 -18 -18 -19 -19 -19 -19 -19 -19 -19 -19 -19
-15 -15 -15 -15 -15 -15 -15 -15 -15 -14 -14 -14 -14 -15 -15 -15 -15 -15 -15 -15 -15 -16 -16 -16 -16 -17 -17 -17 -18 -18 -18 -18 -19 -19 -19 -20 -20 -20 -20 -20 -19 -19 -19
-15 -16 -16 -16 -16 -15 -15 -15 -15 -15 -15 -15 -15 -15 -15 -15 -15 -15 -15 -15 -16 -16 -16 -17 -17 -18 -18 -18 -18 -19 -19 -19 -20 -20 -20 -20 -20 -20 -20 -20 -20 -20 -20
-15 -16 -16 -16 -16 -16 -15 -15 -15 -15 -15 -15 -15 -15 -15 -15 -15 -15 -15 -16 -16 -17 -17 -18 -18 -19 -19 -19 -19 -20 -20 -20 -20 -20 -20 -20 -20 -20 -20 -20 -20 -21 -21
-16 -16 -16 -16 -16 -16 -16 -15 -15 -15 -15 -15 -15 -15 -15 -15 -16 -16 -16 -17 -17 -18 -18 -18 -19 -19 -19 -19 -20 -20 -20 -19 -19 -19 -20 -20 -20 -20 -20 -20 -21 -21 -21
-16 -16 -16 -16 -15 -16 -15 -15 -15 -15 -15 -15 -16 -16 -15 -16 -16 -16 -17 -17 -18 -18 -19 -19 -19 -19 -20 -20 -20 -20 -20 -20 -19 -19 -19 -20 -20 -20 -21 -21 -22 -22 -22
-17 -17 -16 -16 -16 -16 -16 -15 -15 -15 -15 -15 -16 -16 -16 -16 -16 -16 -17 -18 -18 -19 -19 -19 -20 -20 -20 -20 -20 -20 -20 -19 -20 -20 -20 -20 -20 -21 -21 -22 -23 -23 -23
Height
5833 5833 5835 5837 5838 5838 5838 5838 5839 5841 5839 5840 5839 5838 5839 5840 5840 5841 5841 5843 5844 5846 5845 5844 5844 5843 5842 5840 5838 5839 5838 5837 5837 5836 5835 5834 5832 5831 5830 5829 5829 5829 5827
5829 5829 5830 5831 5832 5833 5833 5834 5835 5836 5836 5837 5836 5836 5835 5836 5837 5838 5840 5842 5842 5843 5843 5842 5840 5839 5839 5838 5837 5836 5836 5835 5835 5833 5833 5832 5831 5830 5829 5828 5827 5826 5825
5824 5826 5826 5825 5825 5826 5827 5829 5830 5831 5832 5833 5832 5832 5831 5833 5835 5835 5837 5838 5841 5841 5840 5839 5839 5839 5837 5836 5836 5833 5833 5832 5832 5830 5830 5830 5828 5827 5827 5827 5826 5824 5823
5818 5819 5820 5822 5821 5821 5823 5824 5825 5826 5826 5827 5826 5827 5827 5829 5831 5830 5833 5836 5837 5837 5837 5837 5836 5836 5835 5834 5833 5832 5832 5831 5829 5828 5827 5827 5827 5825 5824 5822 5823 5822 5821
5811 5813 5814 5815 5814 5816 5819 5820 5821 5821 5822 5821 5822 5823 5824 5825 5826 5826 5829 5831 5833 5835 5835 5835 5834 5833 5833 5833 5832 5829 5829 5828 5826 5825 5824 5823 5824 5823 5821 5820 5818 5820 5818
5805 5805 5806 5807 5808 5810 5812 5814 5814 5816 5817 5817 5818 5818 5820 5821 5821 5822 5824 5827 5830 5832 5832 5832 5831 5832 5832 5831 5830 5829 5827 5824 5823 5823 5822 5821 5819 5817 5817 5816 5815 5814 5815
5802 5801 5800 5800 5800 5801 5804 5809 5810 5810 5810 5811 5812 5814 5816 5816 5817 5817 5822 5825 5828 5827 5828 5829 5829 5829 5829 5827 5826 5823 5823 5821 5820 5819 5818 5816 5815 5815 5813 5812 5810 5810 5809
5797 5795 5792 5793 5791 5791 5795 5800 5803 5805 5807 5807 5808 5809 5811 5812 5814 5817 5821 5823 5824 5824 5824 5826 5825 5825 5825 5823 5822 5821 5817 5816 5816 5815 5814 5811 5810 5809 5809 5807 5805 5804 5803
5792 5789 5782 5783 5786 5787 5791 5793 5798 5800 5801 5803 5804 5804 5807 5808 5814 5818 5820 5819 5820 5820 5822 5822 5822 5821 5822 5820 5819 5817 5815 5813 5812 5811 5810 5806 5803 5801 5800 5799 5798 5797 5795
5787 5782 5784 5783 5778 5779 5784 5787 5791 5795 5796 5799 5801 5803 5804 5809 5813 5816 5816 5817 5818 5818 5818 5818 5818 5818 5816 5815 5814 5813 5812 5810 5808 5806 5804 5800 5800 5797 5794 5793 5790 5789 5788
5780 5779 5769 5770 5778 5779 5782 5785 5789 5789 5796 5795 5797 5799 5806 5809 5811 5814 5814 5814 5815 5814 5816 5814 5814 5813 5813 5810 5809 5808 5807 5804 5800 5797 5794 5792 5791 5790 5787 5785 5783 5781 5778
5777 5775 5772 5774 5775 5778 5784 5782 5787 5787 5791 5794 5797 5801 5804 5807 5810 5812 5812 5812 5812 5812 5811 5809 5809 5809 5809 5806 5804 5803 5802 5800 5796 5794 5791 5788 5785 5782 5779 5777 5773 5770 5768
5772 5771 5773 5772 5773 5777 5779 5783 5785 5788 5791 5795 5797 5800 5803 5806 5808 5809 5810 5809 5810 5809 5807 5807 5807 5806 5805 5803 5801 5799 5796 5794 5792 5789 5786 5783 5779 5776 5773 5769 5765 5763 5760
5768 5765 5768 5769 5772 5774 5776 5779 5782 5788 5793 5797 5800 5801 5801 5803 5804 5804 5806 5806 5804 5805 5805 5804 5803 5802 5801 5799 5796 5793 5791 5788 5786 5783 5779 5776 5773 5770 5766 5763 5760 5756 5754
5765 5765 5766 5766 5768 5773 5776 5779 5785 5791 5795 5796 5797 5799 5800 5800 5802 5803 5802 5802 5802 5802 5800 5800 5799 5798 5796 5794 5791 5789 5786 5783 5779 5777 5772 5768 5765 5761 5758 5756 5753 5749 5746
5766 5767 5769 5770 5774 5777 5785 5787 5790 5794 5795 5794 5795 5799 5798 5798 5799 5798 5798 5799 5799 5798 5797 5796 5795 5793 5791 5788 5783 5781 5778 5773 5769 5767 5762 5759 5756 5752 5749 5746 5743 5741 5739
5769 5769 5773 5777 5781 5782 5787 5788 5789 5791 5792 5791 5794 5796 5794 5794 5795 5796 5795 5795 5794 5795 5793 5790 5789 5786 5783 5779 5775 5771 5768 5765 5760 5757 5753 5749 5746 5743 5740 5736 5733 5730 5728
5773 5773 5777 5781 5783 5783 5786 5788 5788 5790 5790 5791 5791 5793 5791 5792 5792 5792 5791 5791 5790 5788 5786 5783 5781 5777 5774 5770 5766 5763 5759 5754 5750 5746 5742 5739 5736 5732 5729 5725 5722 5720 5716
5775 5778 5779 5782 5783 5784 5786 5787 5786 5788 5787 5788 5789 5788 5789 5789 5790 5789 5788 5787 5785 5782 5778 5776 5773 5769 5765 5761 5756 5753 5748 5744 5740 5736 5732 5728 5724 5721 5718 5714 5711 5708 5704
5776 5778 5780 5782 5783 5784 5783 5783 5783 5782 5783 5784 5787 5785 5787 5788 5787 5786 5783 5782 5778 5775 5772 5768 5763 5759 5756 5751 5747 5743 5738 5734 5730 5727 5722 5717 5714 5711 5707 5702 5698 5695 5692
5776 5778 5777 5779 5779 5779 5779 5779 5779 5779 5781 5783 5785 5784 5785 5783 5782 5780 5777 5774 5771 5767 5764 5759 5755 5751 5746 5742 5738 5733 5729 5724 5719 5714 5710 5706 5702 5698 5693 5688 5683 5680 5676
5776 5776 5776 5776 5776 5777 5777 5778 5778 5779 5780 5782 5782 5781 5780 5778 5776 5772 5770 5766 5763 5760 5755 5751 5746 5740 5736 5731 5726 5721 5716 5712 5707 5703 5699 5694 5690 5684 5678 5673 5668 5664 5660
5774 5774 5775 5775 5775 5775 5776 5777 5778 5777 5779 5779 5778 5776 5774 5771 5767 5765 5763 5760 5756 5751 5746 5740 5735 5730 5725 5719 5713 5709 5703 5699 5695 5691 5685 5679 5673 5667 5661 5656 5651 5645 5641
5770 5772 5772 5774 5774 5774 5774 5775 5774 5775 5775 5773 5772 5770 5766 5763 5760 5759 5756 5751 5746 5741 5735 5730 5724 5719 5713 5707 5701 5696 5691 5686 5680 5677 5672 5665 5657 5651 5644 5637 5630 5624 5619
5770 5770 5771 5771 5771 5771 5771 5772 5771 5770 5769 5767 5765 5762 5758 5754 5752 5749 5746 5742 5736 5730 5724 5718 5713 5707 5701 5696 5691 5684 5678 5672 5665 5660 5656 5650 5642 5633 5626 5617 5609 5601 5595
5764 5766 5767 5767 5768 5767 5768 5766 5766 5764 5761 5759 5756 5752 5749 5745 5743 5739 5735 5730 5724 5719 5713 5706 5701 5697 5692 5686 5678 5671 5664 5658 5651 5644 5637 5632 5625 5616 5606 5595 5583 5577 5570
Wind_Speed
29 29 25 23 23 24 28 30 29 26 17 18 22 21 20 20 17 19 12 9 11 13 11 11 13 14 16 16 14 15 15 15 15 14 14 14 14 14 13 13 13 13 12
25 27 27 28 29 29 28 28 29 24 24 20 21 22 18 20 21 16 13 10 10 11 11 13 14 15 15 15 15 14 15 14 14 13 14 15 15 15 14 13 12 12 13
25 26 27 30 31 34 34 32 28 29 29 22 22 22 18 20 23 16 13 10 11 9 12 16 15 16 15 14 14 14 15 14 15 14 15 17 17 15 12 11 13 15 17
29 29 30 32 33 33 33 33 29 27 27 25 20 20 19 24 24 18 12 12 12 11 16 18 16 16 16 17 18 19 19 19 17 15 17 18 19 18 15 14 17 20 21
29 30 32 33 36 35 35 29 28 27 28 28 28 20 21 25 26 20 14 15 18 15 17 19 18 16 17 20 21 21 23 22 20 19 18 20 21 20 19 21 23 25 23
33 33 33 34 34 33 31 31 24 29 28 25 24 27 26 28 27 23 21 20 13 16 16 20 18 20 21 25 25 26 27 23 22 22 21 21 24 24 25 28 29 29 27
29 28 31 31 35 36 33 22 29 31 29 27 25 28 26 26 29 15 9 10 16 18 22 14 17 22 24 24 26 27 27 24 20 18 19 20 21 23 27 30 30 33 35
28 30 36 35 30 32 22 34 27 30 28 31 27 33 31 31 11 9 13 15 21 20 16 20 22 26 29 29 30 25 20 18 18 19 22 25 27 28 30 32 33 34 35
35 35 47 40 33 33 38 33 32 26 26 28 33 36 35 14 10 10 10 14 19 16 19 20 22 28 28 26 21 21 19 20 22 24 29 29 31 32 32 33 35 37 40
31 37 41 50 34 38 33 40 35 26 24 23 33 30 13 10 10 11 10 15 18 15 16 23 25 23 27 24 24 25 23 25 26 28 31 29 30 29 31 34 35 36 35
32 21 42 49 53 42 45 40 34 35 23 27 28 12 11 10 11 12 11 12 15 20 24 22 26 22 26 28 26 24 24 25 26 28 31 34 36 37 37 38 39 39 38
28 41 25 24 37 44 41 17 17 22 24 19 17 17 15 12 10 12 16 16 16 18 24 24 22 24 22 19 19 21 25 28 30 32 34 36 37 37 38 39 39 41 42
25 24 18 19 24 37 33 21 23 25 17 19 14 12 11 11 12 16 19 18 17 18 20 19 17 17 21 24 25 26 28 29 32 34 35 38 39 41 41 41 40 40 40
16 19 14 17 28 29 34 24 26 19 14 12 9 10 10 13 17 16 13 12 15 14 12 14 16 20 24 27 28 30 31 32 35 37 38 39 41 42 41 42 41 40 41
12 11 8 19 22 19 18 18 12 9 10 10 11 13 12 8 5 9 11 15 11 11 14 19 22 26 29 30 31 33 34 35 37 39 40 41 42 42 42 42 41 40 41
25 22 18 17 16 17 10 10 9 10 10 9 8 11 12 15 10 11 6 7 11 16 19 24 28 29 32 34 35 37 40 40 40 42 42 43 43 44 44 44 42 40 41
20 21 17 15 16 18 16 15 15 15 15 9 9 10 10 12 12 6 8 12 17 22 26 28 31 33 36 39 40 42 44 44 43 45 44 43 43 45 45 44 43 43 43
14 15 13 10 10 10 11 12 10 11 12 11 8 9 8 9 7 10 13 18 22 26 30 32 36 38 41 43 44 46 47 47 47 46 46 46 44 43 42 43 45 45 43
16 13 11 9 9 10 9 11 11 12 12 10 9 6 5 6 11 14 19 23 26 31 35 38 41 43 45 46 46 47 47 47 48 47 47 45 45 45 45 47 48 45 42
9 8 7 6 8 7 6 7 9 8 8 7 7 6 8 13 16 20 23 27 32 36 39 42 44 45 45 45 46 47 48 47 46 46 46 45 48 54 55 55 50 47 48
8 6 5 3 4 6 6 5 6 7 8 8 9 11 15 17 21 24 28 32 37 40 43 45 46 47 48 48 48 47 47 47 46 46 46 47 52 57 55 55 54 54 57
7 5 5 6 5 7 7 8 8 8 8 11 14 17 20 23 25 29 33 37 40 43 44 44 45 44 45 45 45 45 46 48 48 49 49 50 54 57 58 59 59 61 63
7 6 7 8 10 11 11 12 11 11 13 15 18 22 26 28 30 34 37 40 42 43 43 44 43 42 46 45 46 51 55 52 51 53 56 58 61 62 62 64 66 67 68
8 6 7 10 12 13 15 15 13 13 17 20 22 27 30 34 32 39 41 40 42 41 42 43 42 45 46 49 53 52 54 56 55 56 58 62 65 66 68 71 73 73 75
13 11 11 12 13 14 17 16 14 17 21 23 26 31 38 34 38 46 41 42 40 41 42 43 45 50 51 52 56 57 58 60 61 63 64 66 69 72 75 77 78 81 83
18 16 13 12 13 13 11 13 17 21 24 27 30 33 37 38 47 44 43 46 45 46 47 46 49 51 57 57 59 60 61 63 65 69 73 75 77 79 81 82 85 88 88
Wind_Direction
249 256 263 261 273 277 273 277 280 290 325 303 301 308 308 320 315 316 311 289 265 284 293 295 297 302 304 301 300 295 297 296 292 295 300 300 294 291 294 293 296 292 291
250 249 255 263 270 274 275 287 284 269 295 307 302 301 299 311 312 304 297 276 266 279 288 294 296 303 303 310 309 307 302 304 311 302 294 292 295 294 297 298 299 304 305
247 250 258 267 276 277 279 289 289 288 288 292 294 294 286 300 310 293 293 265 261 268 287 287 292 298 310 316 315 317 311 306 301 305 296 292 296 293 293 304 309 319 316
252 255 261 268 273 278 283 292 287 284 283 283 271 281 281 279 305 292 273 256 245 263 273 281 291 296 304 309 311 313 312 308 307 302 299 295 288 284 281 293 302 311 309
254 261 266 270 276 278 278 284 277 279 281 278 277 281 279 276 292 291 254 237 244 247 266 277 286 294 303 305 304 308 308 304 304 300 297 296 292 282 277 282 287 294 298
259 259 267 276 277 273 269 267 267 271 280 278 278 271 275 288 276 267 239 241 233 260 257 275 285 295 298 302 305 306 309 306 302 299 299 291 289 286 279 281 286 289 291
271 274 268 272 278 267 257 243 247 264 273 267 266 262 289 272 260 235 231 239 249 242 259 284 290 292 296 301 307 310 309 303 299 294 298 300 295 293 284 283 283 287 286
262 268 273 269 259 253 225 246 242 264 269 266 261 260 272 265 214 216 233 239 244 254 274 279 284 292 299 307 304 295 294 289 283 287 296 295 292 288 289 288 288 286 285
262 274 274 217 240 237 248 242 238 253 257 260 266 257 261 239 197 217 237 247 251 261 270 275 277 287 298 294 293 300 288 276 272 278 305 311 306 302 296 294 289 287 289
267 282 236 247 243 253 237 232 243 250 255 270 263 254 172 171 188 208 217 240 254 277 278 273 283 293 289 293 291 308 303 298 286 290 306 310 308 307 306 304 302 299 298
271 257 216 226 232 246 230 227 260 258 258 255 245 191 158 172 198 216 244 260 261 269 279 285 286 284 293 302 300 304 311 314 313 312 309 309 309 309 308 306 303 302 302
261 265 241 234 231 229 243 254 260 240 237 237 157 163 177 186 217 218 246 264 274 276 275 279 288 300 304 313 315 315 311 309 309 306 306 305 305 304 304 304 304 304 302
267 265 254 238 220 224 244 227 225 224 154 137 137 161 191 217 243 249 253 259 267 278 297 286 295 313 314 311 311 308 307 308 306 302 301 300 299 299 300 301 301 301 302
261 265 230 258 225 223 232 170 136 111 117 145 173 192 202 222 239 248 253 281 301 294 299 313 311 307 308 312 311 311 306 302 300 299 296 296 295 293 292 292 293 296 298
85 90 177 200 191 147 103 88 100 131 166 175 194 207 224 231 254 266 274 282 271 290 305 306 308 308 308 306 305 302 299 298 298 298 298 297 294 292 289 287 289 291 292
86 86 86 91 101 102 120 141 162 180 177 192 208 229 234 230 275 288 259 270 287 302 301 303 304 304 303 305 304 300 300 301 301 300 300 298 297 295 293 291 289 289 287
110 109 118 127 144 150 169 178 193 199 209 217 232 248 243 249 274 257 285 292 301 298 299 298 299 303 305 302 301 302 301 301 299 299 298 296 293 294 294 292 291 290 287
138 134 149 165 171 170 185 195 205 223 226 229 240 248 253 257 249 277 290 293 293 294 296 300 303 303 301 301 303 303 303 302 300 299 297 293 290 293 292 292 292 289 285
147 150 156 161 174 192 203 217 222 226 218 229 234 234 227 257 273 280 284 291 293 297 301 303 304 303 304 305 305 304 303 303 302 300 296 289 290 295 296 297 292 286 281
150 137 143 178 205 214 224 236 240 230 222 219 219 225 248 262 271 281 289 293 299 303 305 305 305 303 304 304 302 301 301 299 297 297 295 294 294 294 295 295 293 285 282
143 159 173 216 239 245 260 241 218 207 198 217 241 253 263 276 285 292 297 303 306 305 304 304 304 304 305 305 302 302 301 301 300 302 301 298 293 294 294 292 289 284 283
173 173 194 224 231 243 239 205 203 215 230 244 259 275 285 288 295 303 306 306 304 303 303 302 300 303 300 299 300 303 303 306 300 299 301 299 298 297 294 292 289 286 286
199 202 216 224 232 236 219 212 222 232 250 267 281 290 293 299 303 303 304 305 305 306 304 303 304 303 303 304 308 303 308 306 303 297 298 299 298 295 292 291 290 290 289
225 238 243 234 231 230 226 227 236 257 273 282 290 294 299 296 300 305 305 308 308 304 302 302 305 308 309 309 309 306 305 304 302 299 297 295 294 292 291 291 292 292 290
247 257 260 253 240 228 229 240 259 273 282 290 292 303 305 295 294 304 305 310 304 304 306 309 307 309 313 306 304 305 305 303 301 300 298 297 296 296 296 296 294 293 293
251 259 266 243 246 263 253 275 282 292 301 307 298 297 297 291 296 301 305 309 310 308 309 303 311 306 304 306 307 306 304 304 303 302 301 301 301 301 300 300 299 299 298